Location: Nürtingen
(48.6244°N, 9.3469°E)
Time: 05:44:44
(UTC+02:00)

OTV 5 (USA 277) - Visible Passes

Search period start: 20 June 2019 00:00
Search period end: 30 June 2019 00:00
Orbit: 310 x 325 km, 54.5° (Epoch: 08 May)

Date Brightness Start Highest point End Pass type
(mag) Time Alt. Az. Time Alt. Az. Time Alt. Az.
20 Jun ? 01:03:08 13° W 01:05:29 44° NNW 01:08:10 10° NE visible
20 Jun ? 02:37:57 10° WNW 02:40:15 23° N 02:42:34 10° NE visible
20 Jun ? 04:12:31 10° NW 04:15:06 35° NNE 04:17:41 10° E visible
20 Jun ? 23:43:08 10° SW 23:45:52 62° SSE 23:48:37 10° ENE visible
21 Jun ? 01:17:52 10° WNW 01:20:22 29° NNW 01:22:52 10° NE visible
21 Jun ? 02:52:54 10° NW 02:55:15 24° N 02:57:34 10° ENE visible
21 Jun ? 04:27:12 10° NW 04:29:57 62° NNE 04:32:41 10° ESE visible
21 Jun ? 22:24:31 10° S 22:26:31 18° SE 22:28:32 10° E visible
21 Jun ? 23:57:52 10° WSW 00:00:36 61° NNW 00:03:22 10° NE visible
22 Jun ? 01:32:59 10° WNW 01:35:19 24° N 01:37:39 10° NE visible
22 Jun ? 03:07:41 10° NW 03:10:12 29° NNE 03:12:41 10° ENE visible
22 Jun ? 22:38:27 10° SW 22:41:05 40° SE 22:43:44 10° ENE visible
23 Jun ? 00:12:52 10° W 00:15:27 35° NNW 00:18:03 10° NE visible
23 Jun ? 01:48:00 10° NW 01:50:18 23° N 01:52:36 10° ENE visible
23 Jun ? 03:22:24 10° NW 03:25:05 45° NNE 03:27:45 10° E visible
23 Jun ? 22:53:00 10° WSW 22:55:46 87° NW 22:58:33 10° ENE visible
24 Jun ? 00:27:58 10° WNW 00:30:23 26° N 00:32:48 10° NE visible
24 Jun ? 02:02:51 10° NW 02:05:16 26° N 02:07:41 10° ENE visible
24 Jun ? 03:37:07 10° WNW 03:39:53 89° N 03:42:38 10° ESE visible
24 Jun ? 23:07:54 10° W 23:10:34 44° NNW 23:13:16 10° NE visible
25 Jun ? 00:43:03 10° WNW 00:45:21 23° N 00:47:40 10° NE visible
25 Jun ? 02:17:36 10° NW 02:20:12 35° NNE 02:22:47 10° E visible
25 Jun ? 03:51:57 10° WNW 03:54:34 39° SW 03:57:10 10° SSE visible
25 Jun ? 23:22:58 10° WNW 23:25:28 29° NNW 23:27:57 10° NE visible
26 Jun ? 00:58:00 10° NW 01:00:20 24° N 01:02:41 10° ENE visible
26 Jun ? 02:32:17 10° WNW 02:35:03 62° NNE 02:37:47 10° ESE visible
26 Jun ? 04:07:10 10° W 04:09:07 18° SW 04:11:04 10° S visible
26 Jun ? 23:38:05 10° WNW 23:40:25 24° N 23:42:45 10° NE visible
27 Jun ? 01:12:47 10° NW 01:15:18 29° NNE 01:17:48 10° E visible
27 Jun ? 02:47:03 10° WNW 02:49:47 60° SW 02:50:15 49° SSE visible
27 Jun ? 22:17:58 10° W 22:20:34 35° NNW 22:23:09 10° NE visible
27 Jun ? 23:53:05 10° NW 23:55:24 23° N 23:57:42 10° ENE visible
28 Jun ? 01:27:29 10° NW 01:30:11 45° NNE 01:31:43 21° E visible
28 Jun ? 03:02:01 10° W 03:02:31 13° W 03:02:31 13° W visible
28 Jun ? 22:33:04 10° WNW 22:35:29 26° N 22:37:53 10° NE visible
29 Jun ? 00:07:57 10° NW 00:10:22 26° N 00:12:47 10° ENE visible
29 Jun ? 01:42:12 10° WNW 01:44:43 70° WNW 01:44:43 70° WNW visible
29 Jun ? 22:48:09 10° WNW 22:50:28 23° N 22:52:46 10° NE visible
